Date String (YYYY-MM-DD hh:mm:ss) UTC,Instrument flags,Ambient pressure (hPa),Sample flow (lpm),Bypass flow (lpm),Sample temperature (°C),Ambient temperature (°C),ASC tube jacket temperature (°C),LED temperature (°C),Box temperature (°C),Sample RH (%),Span deviation,Mass concentration (μg/m³),Mass concentration (μg/m³),Mass concentration (μg/m³)
DateTimeUTC,F1_M11,P_M11,Q1_M11,Q2_M11,T1_M11,T2_M11,T3_M11,T4_M11,T5_M11,U1_M11,ZSPAN_M11,X0_M11,X2_M11,X1_M11
2023-05-28 02:00:00,,0827.6,5.00,0.00,29.5,27.6,00.0,37.9,31.2,22.2,0000.0,0008.48,0004.12,0002.99
2023-05-28 02:01:00,,0827.7,5.00,0.00,29.6,27.7,00.0,37.9,31.2,22.6,0000.0,0008.56,0004.11,0002.99
2023-05-28 02:02:00,,0827.7,4.99,0.00,29.6,27.9,00.0,37.9,31.2,22.3,0000.0,0009.81,0004.11,0003.01
2023-05-28 02:03:00,,0827.7,5.00,0.00,29.6,28.0,00.0,37.9,31.2,22.8,0000.0,0010.19,0004.10,0003.02
2023-05-28 02:04:00,,0827.7,4.99,0.00,29.6,28.1,00.0,37.9,31.3,23.0,0000.0,0010.15,0004.10,0003.02
2023-05-28 02:05:00,,0827.7,5.00,0.00,29.6,28.1,00.0,38.0,31.3,23.1,0000.0,0010.22,0004.11,0003.02
2023-05-28 02:06:00,,0827.8,5.00,0.00,29.7,28.2,00.0,38.0,31.3,22.6,0000.0,0010.62,0004.10,0002.98
2023-05-28 02:07:00,,0827.8,5.01,0.00,29.7,28.2,00.0,38.0,31.3,22.8,0000.0,0011.98,0004.04,0002.94
2023-05-28 02:08:00,,0827.8,5.00,0.00,29.7,28.3,00.0,38.0,31.4,22.9,0000.0,0012.20,0004.02,0002.95
2023-05-28 02:09:00,,0827.9,5.00,0.00,29.7,28.3,00.0,38.0,31.4,22.9,0000.0,0012.90,0004.05,0002.96
2023-05-28 02:10:00,,0827.9,4.99,0.00,29.7,28.4,00.0,38.0,31.4,22.7,0000.0,0013.22,0004.02,0002.95
2023-05-28 02:11:00,,0828.0,5.00,0.00,29.8,28.4,00.0,38.0,31.4,23.0,0000.0,0014.31,0004.00,0002.94
2023-05-28 02:12:00,,0828.0,5.00,0.00,29.8,28.4,00.0,38.1,31.5,22.9,0000.0,0014.26,0004.00,0002.96
2023-05-28 02:13:00,,0828.1,5.00,0.00,29.8,28.5,00.0,38.1,31.5,22.5,0000.0,0013.10,0004.01,0002.93
2023-05-28 02:14:00,,0828.1,5.00,0.00,29.8,28.5,00.0,38.1,31.5,22.4,0000.0,0012.67,0003.98,0002.89
2023-05-28 02:15:00,,0828.1,4.99,0.00,29.9,27.6,00.0,38.1,31.4,22.6,0000.0,0013.14,0003.98,0002.86
2023-05-28 02:16:00,,0828.1,5.00,0.00,29.8,25.9,00.0,38.0,31.2,22.5,0000.0,0013.38,0003.95,0002.81
2023-05-28 02:17:00,,0828.1,5.01,0.00,29.7,25.4,00.0,37.9,31.0,21.7,0000.0,0013.56,0003.91,0002.78
2023-05-28 02:18:00,,0828.1,5.02,0.00,29.6,25.5,00.0,37.9,30.9,21.7,0000.0,0011.60,0003.79,0002.72
2023-05-28 02:19:00,,0828.2,4.99,0.00,29.5,25.9,00.0,37.9,30.9,21.4,0000.0,0011.19,0003.70,0002.64
2023-05-28 02:20:00,,0828.1,5.00,0.00,29.5,26.2,00.0,37.9,31.0,21.0,0000.0,0010.22,0003.64,0002.59
2023-05-28 02:21:00,,0828.1,5.00,0.00,29.5,26.6,00.0,37.9,31.0,20.6,0000.0,0010.55,0003.57,0002.52
2023-05-28 02:22:00,,0828.2,4.99,0.00,29.5,26.9,00.0,37.9,31.0,20.8,0000.0,0009.73,0003.55,0002.48
2023-05-28 02:23:00,,0828.2,5.00,0.00,29.5,27.2,00.0,37.9,31.1,21.4,0000.0,0009.37,0003.47,0002.42
2023-05-28 02:24:00,,0828.2,5.01,0.00,29.5,27.4,00.0,37.9,31.1,21.8,0000.0,0009.06,0003.38,0002.35
2023-05-28 02:25:00,,0828.2,5.01,0.00,29.5,27.6,00.0,37.9,31.1,21.5,0000.0,0008.91,0003.34,0002.32
2023-05-28 02:26:00,,0828.2,5.00,0.00,29.5,27.7,00.0,37.9,31.2,21.6,0000.0,0008.59,0003.31,0002.27
2023-05-28 02:27:00,,0828.2,5.00,0.00,29.5,27.9,00.0,37.9,31.2,22.1,0000.0,0008.06,0003.28,0002.24
2023-05-28 02:28:00,,0828.2,5.00,0.00,29.6,28.0,00.0,37.9,31.2,22.3,0000.0,0007.75,0003.27,0002.22
2023-05-28 02:29:00,,0828.2,5.00,0.00,29.6,28.0,00.0,37.9,31.2,22.2,0000.0,0008.02,0003.28,0002.22
2023-05-28 02:30:00,,0828.2,5.00,0.00,29.6,28.1,00.0,37.9,31.3,21.9,0000.0,0008.20,0003.32,0002.21
2023-05-28 02:31:00,,0828.3,5.00,0.00,29.6,28.2,00.0,37.9,31.3,21.5,0000.0,0008.49,0003.33,0002.20
2023-05-28 02:32:00,,0828.3,5.00,0.00,29.6,28.2,00.0,37.9,31.3,21.3,0000.0,0008.78,0003.29,0002.19
2023-05-28 02:33:00,,0828.3,5.00,0.00,29.7,28.3,00.0,37.9,31.3,21.3,0000.0,0008.01,0003.27,0002.19
2023-05-28 02:34:00,,0828.3,4.99,0.00,29.7,28.3,00.0,38.0,31.4,21.4,0000.0,0008.24,0003.32,0002.21
2023-05-28 02:35:00,,0828.4,5.00,0.00,29.7,28.3,00.0,38.0,31.4,21.6,0000.0,0008.91,0003.38,0002.23
2023-05-28 02:36:00,,0828.3,5.00,0.00,29.7,28.4,00.0,38.0,31.4,21.6,0000.0,0008.96,0003.41,0002.24
2023-05-28 02:37:00,,0828.4,5.00,0.00,29.8,28.4,00.0,38.0,31.4,21.7,0000.0,0009.28,0003.42,0002.27
2023-05-28 02:38:00,,0828.4,5.01,0.00,29.8,28.4,00.0,38.0,31.5,21.7,0000.0,0010.06,0003.48,0002.28
2023-05-28 02:39:00,,0828.4,5.00,0.00,29.8,28.5,00.0,38.1,31.5,21.5,0000.0,0010.58,0003.50,0002.29
2023-05-28 02:40:00,,0828.5,4.99,0.00,29.8,28.5,00.0,38.1,31.5,21.4,0000.0,0010.47,0003.51,0002.29
2023-05-28 02:41:00,,0828.5,5.00,0.00,29.9,28.5,00.0,38.1,31.5,21.5,0000.0,0010.41,0003.51,0002.30
2023-05-28 02:42:00,,0828.5,5.00,0.00,29.9,28.5,00.0,38.1,31.5,21.2,0000.0,0010.37,0003.49,0002.32
2023-05-28 02:43:00,,0828.5,5.00,0.00,29.9,27.1,00.0,38.1,31.3,20.7,0000.0,0009.97,0003.53,0002.34
2023-05-28 02:44:00,,0828.6,5.01,0.00,29.8,25.6,00.0,38.0,31.1,20.6,0000.0,0010.40,0003.56,0002.35
2023-05-28 02:45:00,,0828.6,5.01,0.00,29.7,25.3,00.0,37.9,31.0,20.9,0000.0,0010.73,0003.53,0002.35
2023-05-28 02:46:00,,0828.6,5.01,0.00,29.6,25.6,00.0,37.9,30.9,21.0,0000.0,0010.55,0003.53,0002.35
2023-05-28 02:47:00,,0828.6,4.99,0.00,29.5,25.9,00.0,37.9,30.9,21.6,0000.0,0010.49,0003.51,0002.34
2023-05-28 02:48:00,,0828.6,4.99,0.00,29.5,26.3,00.0,37.9,30.9,21.5,0000.0,0010.17,0003.47,0002.33
2023-05-28 02:49:00,,0828.6,5.00,0.00,29.5,26.6,00.0,37.9,31.0,21.5,0000.0,0009.92,0003.40,0002.31
2023-05-28 02:50:00,,0828.6,5.01,0.00,29.5,26.9,00.0,37.9,31.0,21.5,0000.0,0009.38,0003.39,0002.32
2023-05-28 02:51:00,,0828.6,5.00,0.00,29.5,27.2,00.0,37.9,31.1,21.5,0000.0,0009.27,0003.38,0002.33
2023-05-28 02:52:00,,0828.6,4.99,0.00,29.5,27.4,00.0,37.9,31.1,21.4,0000.0,0009.42,0003.42,0002.33
2023-05-28 02:53:00,,0828.6,4.98,0.00,29.5,27.5,00.0,37.9,31.1,21.4,0000.0,0009.59,0003.42,0002.33
2023-05-28 02:54:00,,0828.6,5.01,0.00,29.5,27.7,00.0,37.9,31.1,21.5,0000.0,0009.54,0003.46,0002.34
2023-05-28 02:55:00,,0828.6,5.01,0.00,29.5,27.8,00.0,37.9,31.2,21.7,0000.0,0009.01,0003.47,0002.33
2023-05-28 02:56:00,,0828.6,5.01,0.00,29.5,27.9,00.0,37.9,31.2,21.7,0000.0,0008.81,0003.48,0002.34
2023-05-28 02:57:00,,0828.6,4.99,0.00,29.6,28.0,00.0,37.9,31.2,21.6,0000.0,0008.19,0003.46,0002.33
2023-05-28 02:58:00,,0828.6,4.99,0.00,29.6,28.1,00.0,37.9,31.2,21.7,0000.0,0008.14,0003.44,0002.34
2023-05-28 02:59:00,,0828.6,5.01,0.00,29.6,28.1,00.0,37.9,31.3,21.9,0000.0,0008.09,0003.45,0002.34
